Change the Weather History Date:

Thursday, September 12, 2013

  Actual Average (KCDC) Record (KCDC)
Temperature  
Mean Temperature 66 °F 63 °F  
Max Temperature 75 °F 80 °F 92 °F (1971)
Min Temperature 57 °F 47 °F 33 °F (1951)
Degree Days  
Heating Degree Days 0 3  
Month to date heating degree days 23  
Since 1 July heating degree days 32  
Cooling Degree Days 1 1  
Month to date cooling degree days 28  
Year to date cooling degree days 577  
Growing Degree Days 16 (Base 50)    
Moisture  
Dew Point 57 °F    
Average Humidity 79    
Maximum Humidity 97    
Minimum Humidity 47    
Precipitation  
Precipitation 0.15 in 0.02 in 0.52 in (1958)
Month to date precipitation 0.25  
Year to date precipitation 7.79  
Sea Level Pressure  
Sea Level Pressure 30.15 in    
Wind  
Wind Speed 2 mph (ENE)    
Max Wind Speed 6 mph    
Max Gust Speed -    
Visibility 10 miles    
Events Rain    
T = Trace of Precipitation, MM = Missing Value Source: NWS Daily Summary

Daily Weather History Graph

Daily Weather History Graph

Search for Another Location

Airport or City:

Trip Planner

Search our weather history database for the weather conditions in past years. The results will help you decide how hot, cold, wet, or windy it might be!

Date:

Astronomy

Sep. 12, 2013 Rise Set
Actual Time 6:12 AM MST 6:43 PM MST
Civil Twilight 5:45 AM MST 7:09 PM MST
Nautical Twilight 5:15 AM MST 7:40 PM MST
Astronomical Twilight 4:43 AM MST 8:11 PM MST
Moon 1:33 PM MST (9/12) 11:52 PM MST (9/12)
Length of Visible Light 13h 23m
Length of Day
12h 31m
Waxing Crescent, 51% of the Moon is Illuminated
Sep 12
Waxing Crescent
Sep 19
Full
Sep 26
Last Quarter
Oct 4
New
Oct 11
First Quarter

Hourly Weather History & Observations

Time (MST) Temp. Dew Point Humidity Pressure Visibility Wind Dir Wind Speed Gust Speed Precip Events Conditions
12:15 AM 59.0 °F 57.4 °F 94% 30.18 in 10.0 mi NE 5.8 mph - 0.01 in Rain Light Rain
12:35 AM 59.0 °F 57.4 °F 94% 30.18 in 7.0 mi ENE 4.6 mph - 0.03 in Rain Rain
12:55 AM 59.2 °F 57.9 °F 96% 30.18 in 7.0 mi SE 3.5 mph - 0.04 in Rain Rain
1:15 AM 59.2 °F 58.3 °F 97% 30.19 in 7.0 mi Calm Calm - 0.02 in Rain Rain
1:35 AM 59.2 °F 58.1 °F 96% 30.18 in 5.0 mi Calm Calm - 0.05 in Rain Rain
1:55 AM 59.0 °F 58.1 °F 97% 30.18 in 7.0 mi ENE 3.5 mph - 0.09 in Rain Light Rain
2:15 AM 59.0 °F 58.1 °F 97% 30.17 in 10.0 mi ENE 3.5 mph - 0.02 in Rain Light Rain
2:35 AM 59.0 °F 58.1 °F 97% 30.16 in 10.0 mi NE 3.5 mph - 0.02 in Rain Light Rain
2:55 AM 59.2 °F 57.9 °F 96% 30.16 in 10.0 mi ENE 4.6 mph - 0.02 in   Light Drizzle
3:15 AM 59.4 °F 58.1 °F 96% 30.16 in 10.0 mi Calm Calm - N/A   Overcast
3:35 AM 59.5 °F 58.1 °F 95% 30.16 in 10.0 mi Calm Calm - N/A   Overcast
3:55 AM 59.7 °F 57.9 °F 94% 30.15 in 10.0 mi Calm Calm - N/A   Overcast
4:15 AM 59.4 °F 58.1 °F 96% 30.16 in 10.0 mi Calm Calm - N/A   Overcast
4:35 AM 59.4 °F 58.5 °F 97% 30.15 in 10.0 mi ESE 5.8 mph - N/A   Overcast
4:55 AM 59.2 °F 58.3 °F 97% 30.15 in 10.0 mi East 3.5 mph - N/A   Overcast
5:15 AM 59.4 °F 58.5 °F 97% 30.15 in 10.0 mi Calm Calm - N/A   Overcast
5:35 AM 59.7 °F 58.3 °F 95% 30.15 in 10.0 mi Calm Calm - N/A   Overcast
5:55 AM 59.5 °F 58.5 °F 96% 30.16 in 10.0 mi Calm Calm - N/A   Overcast
6:15 AM 59.7 °F 58.6 °F 96% 30.17 in 10.0 mi Calm Calm - N/A   Overcast
6:35 AM 59.9 °F 58.5 °F 95% 30.18 in 10.0 mi Calm Calm - N/A   Overcast
6:55 AM 60.1 °F 58.8 °F 96% 30.18 in 10.0 mi Calm Calm - N/A   Overcast
7:15 AM 60.4 °F 59.0 °F 95% 30.19 in 10.0 mi Calm Calm - N/A   Overcast
7:35 AM 61.2 °F 59.0 °F 93% 30.19 in 10.0 mi NE 3.5 mph - N/A   Overcast
7:55 AM 61.5 °F 59.5 °F 93% 30.20 in 10.0 mi NNE 3.5 mph - N/A   Overcast
8:15 AM 62.6 °F 59.5 °F 90% 30.19 in 10.0 mi Calm Calm - N/A   Overcast
8:35 AM 63.9 °F 59.7 °F 86% 30.20 in 10.0 mi Calm Calm - N/A   Overcast
8:55 AM 64.9 °F 59.0 °F 81% 30.20 in 10.0 mi Calm Calm - N/A   Overcast
9:15 AM 65.3 °F 57.7 °F 76% 30.20 in 10.0 mi Calm Calm - N/A   Overcast
9:35 AM 66.0 °F 56.7 °F 72% 30.21 in 10.0 mi Calm Calm - N/A   Overcast
9:55 AM 66.4 °F 57.7 °F 74% 30.22 in 10.0 mi Calm Calm - N/A   Overcast
10:15 AM 66.9 °F 57.6 °F 72% 30.22 in 10.0 mi SSE 3.5 mph - N/A   Overcast
10:35 AM 66.9 °F 57.4 °F 71% 30.22 in 10.0 mi SSW 3.5 mph - N/A   Overcast
10:55 AM 66.6 °F 57.7 °F 73% 30.21 in 10.0 mi SSW 4.6 mph - N/A Rain Rain
11:15 AM 65.8 °F 58.6 °F 78% 30.21 in 10.0 mi SSW 4.6 mph - N/A   Overcast
11:35 AM 65.5 °F 57.9 °F 77% 30.20 in 10.0 mi SSW 3.5 mph - N/A Rain Light Rain
11:55 AM 65.3 °F 58.3 °F 78% 30.20 in 10.0 mi SW 3.5 mph - N/A   Light Drizzle
12:15 PM 65.5 °F 58.3 °F 77% 30.20 in 10.0 mi Calm Calm - N/A Rain Light Rain
12:35 PM 66.6 °F 58.1 °F 74% 30.19 in 10.0 mi Calm Calm - N/A Rain Light Rain
12:55 PM 67.6 °F 57.4 °F 70% 30.18 in 10.0 mi Calm Calm - N/A   Scattered Clouds
1:15 PM 68.9 °F 57.4 °F 67% 30.17 in 10.0 mi Calm Calm - N/A   Clear
1:35 PM 69.6 °F 57.0 °F 64% 30.16 in 10.0 mi Calm Calm - N/A   Clear
1:55 PM 70.9 °F 55.6 °F 58% 30.16 in 10.0 mi Calm Calm - N/A   Clear
2:15 PM 72.0 °F 55.6 °F 56% 30.15 in 10.0 mi Calm Calm - N/A   Clear
2:35 PM 73.0 °F 55.8 °F 55% 30.14 in 10.0 mi NNW 3.5 mph - N/A   Clear
2:55 PM 73.4 °F 53.6 °F 50% 30.13 in 10.0 mi NNE 3.5 mph - N/A   Clear
3:15 PM 73.4 °F 53.2 °F 49% 30.12 in 10.0 mi Calm Calm - N/A   Clear
3:35 PM 74.5 °F 53.1 °F 47% 30.12 in 10.0 mi Calm Calm - N/A   Clear
3:55 PM 75.0 °F 53.8 °F 47% 30.11 in 10.0 mi NNW 3.5 mph - N/A   Clear
4:15 PM 74.7 °F 53.6 °F 48% 30.11 in 10.0 mi Calm Calm - N/A   Clear
4:35 PM 74.5 °F 53.2 °F 47% 30.11 in 10.0 mi Calm Calm - N/A   Clear
4:55 PM 74.5 °F 53.8 °F 48% 30.10 in 10.0 mi North 3.5 mph - N/A   Clear
5:15 PM 74.3 °F 54.0 °F 49% 30.09 in 10.0 mi North 4.6 mph - N/A   Clear
5:35 PM 74.1 °F 53.6 °F 49% 30.09 in 10.0 mi Calm Calm - N/A   Clear
5:55 PM 73.6 °F 54.0 °F 50% 30.09 in 10.0 mi Calm Calm - N/A   Clear
6:15 PM 72.9 °F 54.5 °F 52% 30.09 in 10.0 mi Calm Calm - N/A   Clear
6:35 PM 71.1 °F 55.9 °F 59% 30.09 in 10.0 mi Calm Calm - N/A   Clear
6:55 PM 69.4 °F 57.0 °F 65% 30.09 in 10.0 mi NNW 3.5 mph - N/A   Clear
7:15 PM 67.5 °F 58.5 °F 73% 30.09 in 10.0 mi Calm Calm - N/A   Clear
7:35 PM 66.4 °F 59.4 °F 78% 30.09 in 10.0 mi Calm Calm - N/A   Clear
7:55 PM 66.0 °F 58.5 °F 77% 30.09 in 10.0 mi Calm Calm - N/A   Clear
8:15 PM 66.4 °F 57.6 °F 73% 30.10 in 10.0 mi Calm Calm - N/A   Clear
8:35 PM 64.4 °F 57.9 °F 79% 30.10 in 10.0 mi Calm Calm - N/A   Clear
8:55 PM 61.9 °F 58.1 °F 87% 30.10 in 10.0 mi Calm Calm - N/A   Clear
9:15 PM 62.4 °F 57.6 °F 84% 30.10 in 10.0 mi Calm Calm - N/A   Clear
9:35 PM 61.3 °F 57.9 °F 89% 30.11 in 10.0 mi Calm Calm - N/A   Clear
9:55 PM 62.2 °F 57.9 °F 86% 30.11 in 10.0 mi Calm Calm - N/A   Clear
10:15 PM 60.1 °F 57.6 °F 91% 30.11 in 10.0 mi Calm Calm - N/A   Clear
10:35 PM 58.3 °F 57.0 °F 96% 30.11 in 10.0 mi East 3.5 mph - N/A   Clear
10:55 PM 58.1 °F 56.7 °F 95% 30.12 in 10.0 mi Calm Calm - N/A   Clear
11:15 PM 58.8 °F 56.8 °F 93% 30.11 in 10.0 mi East 3.5 mph - N/A   Clear
11:35 PM 57.7 °F 56.3 °F 95% 30.11 in 10.0 mi SE 5.8 mph - N/A   Clear
11:55 PM 57.6 °F 56.7 °F 97% 30.11 in 10.0 mi Calm Calm - N/A   Clear